This is the latest recevied weather packets stored in our database for station/object DL8NDG-13. If no packets are shown the sender has not sent any weather packets the latest 10 day(s).
| Time | Temp. | Humidity | Pressure | Rain* | Wind** | Luminosity | Snow |
|---|---|---|---|---|---|---|---|
| 1777603520 | 3.33° C | 71% | 1027.8 hPa | 0 mm | - | 0 W/m² | - |
| 1777602622 | 3.89° C | 70% | 1027.8 hPa | 0 mm | - | 0 W/m² | - |
| 1777601719 | 3.89° C | 69% | 1027.9 hPa | 0 mm | - | 0 W/m² | - |
| 1777597210 | 4.44° C | 66% | 1027.8 hPa | 0 mm | - | 0 W/m² | - |
| 1777588251 | 6.67° C | 57% | 1027.5 hPa | 0 mm | - | 0 W/m² | - |
| 1777587356 | 7.22° C | 56% | 1027.5 hPa | 0 mm | - | 0 W/m² | - |
| 1777586450 | 7.22° C | 54% | 1027.6 hPa | 0 mm | - | 0 W/m² | - |
| 1777583750 | 8.33° C | 48% | 1027.2 hPa | 0 mm | - | 0 W/m² | - |
| 1777581944 | 9.44° C | 46% | 1027.1 hPa | 0 mm | - | 0 W/m² | - |
| 1777581040 | 9.44° C | 45% | 1027.3 hPa | 0 mm | - | 0 W/m² | - |
| 1777580140 | 9.44° C | 45% | 1027.4 hPa | 0 mm | - | 0 W/m² | - |
| 1777579239 | 10° C | 44% | 1027.4 hPa | 0 mm | - | 0 W/m² | - |
| 1777575650 | 12.22° C | 36% | 1027 hPa | 0 mm | - | 0 W/m² | - |
| 1777573832 | 13.33° C | 31% | 1026.7 hPa | 0 mm | - | 5 W/m² | - |
| 1777569327 | 16.11° C | 24% | 1026.4 hPa | 0 mm | - | 225 W/m² | - |
| 1777567526 | 16.67° C | 24% | 1026.3 hPa | 0 mm | - | 334 W/m² | - |
| 1777561217 | 17.78° C | 25% | 1026.3 hPa | 0 mm | - | 612 W/m² | - |
| 1777559418 | 17.78° C | 25% | 1026.6 hPa | 0 mm | - | 680 W/m² | - |
| 1777548622 | 15° C | 27% | 1028.2 hPa | 0 mm | - | 860 W/m² | - |
| 1777545013 | 14.44° C | 27% | 1028.6 hPa | 0 mm | - | 846 W/m² | - |
| 1777529721 | 5.56° C | 49% | 1029.4 hPa | 0 mm | - | 33 W/m² | - |
| 1777526121 | 3.33° C | 57% | 1029.2 hPa | 0 mm | - | 25 W/m² | - |
| 1777523406 | 2.22° C | 59% | 1029 hPa | 0 mm | - | 14 W/m² | - |
| 1777521669 | 2.78° C | 56% | 1028.5 hPa | 0 mm | - | 0 W/m² | - |
| 1777503610 | 7.22° C | 43% | 1027.1 hPa | 0 mm | - | 0 W/m² | - |
* Rain latest hour (hover to see other rain measurements)
** Current wind speed in m/s (hover to see current wind gust speed)